This demonstration page uses our WeatherBlox Daily Observations layout. Learn more.

Left ArrowRight Arrow

39.01783, -85.05884

Hourly Observations for April 8, 2020

Temp ( °F °C ) Dew Point ( °F °C ) Humidity (%) Winds ( mph kmh ) Pressure ( in mb ) Visibility ( mi km ) Precip ( " mm )
12:52 am 00:52 Clear 70 21.1 59 15 68 68 WSW 17 28 29.67 1005 10 16 N/A
1:52 am 01:52 Mostly Clear 70 21.1 59 15 68 68 WSW 15 24 29.66 1004 10 16 N/A
2:29 am 02:29 Mostly Cloudy 69 20.6 60 15.6 73 73 WSW 15 24 29.67 1005 10 16 N/A
2:52 am 02:52 Cloudy 70 21.1 60 15.6 71 71 WSW 14 22 29.66 1004 10 16 N/A
3:52 am 03:52 Cloudy 70 21.1 60 15.6 71 71 WSW 17 28 29.65 1004 10 16 N/A
4:52 am 04:52 Cloudy 69 20.6 61 16.1 76 76 WSW 10 17 29.66 1004 10 16 N/A
5:19 am 05:19 Cloudy 69 20.6 61 16.1 76 76 WSW 8 13 29.67 1005 10 16 0.00 0.00
5:52 am 05:52 Cloudy 69 20.6 61 16.1 76 76 W 14 22 29.66 1004 10 16 0.00 0.00
5:58 am 05:58 Cloudy 69 20.6 61 16.1 76 76 W 10 17 29.67 1005 10 16 N/A
6:52 am 06:52 Cloudy 68 20 61 16.1 78 78 W 13 20 29.68 1005 10 16 N/A
7:52 am 07:52 Mostly Cloudy 68 20 61 16.1 78 78 WSW 8 13 29.70 1006 9 14 N/A
8:40 am 08:40 Mostly Cloudy 68 20 62 16.7 81 81 W 8 13 29.72 1006 10 16 N/A
8:52 am 08:52 Mostly Cloudy 69 20.6 62 16.7 78 78 W 9 15 29.71 1006 10 16 N/A
9:52 am 09:52 Mostly Cloudy 71 21.7 62 16.7 73 73 W 12 19 29.70 1006 10 16 N/A
10:52 am 10:52 Mostly Cloudy 72 22.2 60 15.6 66 66 W 14 22 29.72 1006 10 16 N/A
11:52 am 11:52 Mostly Cloudy 75 23.9 61 16.1 62 62 W 13 20 29.72 1007 10 16 N/A
12:52 pm 12:52 Mostly Cloudy 77 25 59 15 54 54 W 12 19 29.70 1006 10 16 N/A
1:52 pm 13:52 Mostly Cloudy 78 25.6 52 11.1 40 40 NNW 17 28 29.68 1005 10 16 N/A
2:52 pm 14:52 Mostly Sunny 79 26.1 52 11.1 39 39 NNW 14 22 29.68 1005 10 16 N/A
3:52 pm 15:52 Mostly Sunny 80 26.7 48 8.9 33 33 NW 13 20 29.66 1004 10 16 N/A
4:45 pm 16:45 Mostly Sunny 80 26.7 46 7.8 30 30 NW 12 19 29.63 1003 10 16 N/A
4:52 pm 16:52 Mostly Sunny 80 26.7 44 6.7 28 28 WNW 9 15 29.64 1004 10 16 N/A
5:52 pm 17:52 Mostly Sunny 79 26.1 44 6.7 29 29 WNW 9 15 29.61 1003 10 16 N/A
6:52 pm 18:52 Sunny 80 26.7 45 7.2 29 29 N N/A 29.58 1002 10 16 N/A
7:52 pm 19:52 Mostly Sunny 74 23.3 49 9.4 41 41 SSW 6 9 29.55 1001 10 16 N/A
8:52 pm 20:52 Mostly Cloudy 71 21.7 50 10 47 47 SSE 7 11 29.51 999 10 16 N/A
9:52 pm 21:52 Mostly Cloudy 71 21.7 56 13.3 59 59 S 14 22 29.47 998 10 16 N/A
9:59 pm 21:59 Mostly Cloudy with Thunderstorms 72 22.2 56 13.3 57 57 S 14 22 29.46 998 10 16 N/A
10:29 pm 22:29 Very Windy with Storms Likely 72 22.2 55 12.8 55 55 WNW 41 67 29.58 1002 10 16 0.00 0.00
10:32 pm 22:32 Very Windy with Storms Likely 65 18.3 53 11.7 66 66 NW 40 65 29.62 1003 3 5 0.00 0.00
10:34 pm 22:34 Cloudy with Strong Thunderstorms 59 15 53 11.7 81 81 WNW 32 52 29.64 1004 2 3 0.00 0.00
10:45 pm 22:45 Cloudy with Strong Thunderstorms 56 13.3 53 11.7 90 90 NW 31 50 29.64 1004 2 3 0.16 4.06
10:52 pm 22:52 Cloudy with Strong Thunderstorms 57 13.9 54 12.2 90 90 NNW 28 44 29.63 1003 3 5 0.19 4.83
10:59 pm 22:59 Cloudy with Thunderstorms 57 13.9 54 12.2 90 90 NW 23 37 29.67 1005 2 3 0.03 0.76
11:02 pm 23:02 Cloudy with Thunderstorms 57 13.9 54 12.2 90 90 NW 24 39 29.67 1005 2 3 0.04 1.02
11:08 pm 23:08 Cloudy with Thunderstorms 57 13.9 55 12.8 93 93 NNW 25 41 29.67 1005 5 8 0.06 1.52
11:50 pm 23:50 Cloudy with Thunderstorms 55 13 55 13 100 100 VRB 3 6 29.62 1003 3 5 0.25 6.35
11:52 pm 23:52 Cloudy with Thunderstorms 56 13.3 55 12.8 97 97 SE 6 9 29.59 1002 3 5 0.26 6.60
11:56 pm 23:56 Cloudy with Rain 56 13.3 54 12.2 93 93 SSE 9 15 29.59 1002 4 6 0.02 0.51

Powered by AerisWeather